Regional Weather Roundup
Issued by NWS

Home | Current Version | Previous Version | Graphics & Text | Print | Product List | Glossary On
Versions: 1 2 3 4 5 6 7 8 9 10 11 12 13 14 15 16 17 18 19 20 21 22 23 24 25 26 27 28 29 30 31 32 33 34 35 36 37 38 39 40 41 42 43 44 45 46 47 48 49 50
000
ASUS43 KIND 171509
RWRIN

WEATHER ROUNDUP FOR INDIANA
NATIONAL WEATHER SERVICE INDIANAPOLIS IN
1100 AM EDT THU APR 17 2014

NOTE: "FAIR" INDICATES FEW OR NO CLOUDS BELOW 12,000 FEET WITH NO
SIGNIFICANT WEATHER AND/OR OBSTRUCTIONS TO VISIBILITY.

* - STATION DOES NOT REPORT WEATHER SUCH AS PRECIPITATION OR FOG.

+ - STATION NOT QUALITY CONTROLLED BY THE NATIONAL WEATHER SERVICE.
    USE DATA WITH CAUTION...ESPECIALLY DEWPOINT AND RELATIVE
    HUMIDITY OBSERVATIONS.

INZ001>003-010>013-019-020-171600-
NORTHWEST INDIANA

CITY           SKY/WX    TMP DP  RH WIND       PRES   REMARKS
GARY /AIRPORT/ MOSUNNY   54  30  40 S14G25    30.19R
LA PORTE +     MOSUNNY   51  27  39 S14G21    30.21S
MICHIGAN CITY+ MOSUNNY   54  28  37 S15G23    30.21R
MONTICELLO +   SUNNY     55  32  42 S13G18    30.23R
RENSSELAER +   SUNNY     55  30  38 SW15G25   30.22S
VALPARAISO     SUNNY     53  28  38 SW18G30   30.21S

$$

LMZ046-743>745-171600-
SOUTHERN LAKE MICHIGAN

STATION/POSITION TIME  TEMP WIND        PRES
                       AIR  DIR/SP/G
                 (UTC) (F)  (DEG/KT/KT) (MB)
MICHIGAN CITY    1500   50  180/ 18/ 26   N/A

$$

INZ004-005-014>016-021>024-171600-
NORTH CENTRAL INDIANA

CITY           SKY/WX    TMP DP  RH WIND       PRES   REMARKS
ELKHART        SUNNY     52  27  37 S12G20    30.23F
GOSHEN         SUNNY     54  29  38 S18       30.24S
LOGANSPORT +   SUNNY     54  30  40 S15       30.26S
PERU/GRISSOM   SUNNY     55  32  41 SW15      30.26R
ROCHESTER +    SUNNY     55  30  38 S13G20    30.25S
SOUTH BEND     PTSUNNY   54  27  35 S15       30.23S
WARSAW +       SUNNY     52  30  43 S7G17     30.25S

$$

INZ006>009-017-018-025>027-171600-
NORTHEAST INDIANA

CITY           SKY/WX    TMP DP  RH WIND       PRES   REMARKS
ANGOLA *+      SUNNY     46  32  57 S7        30.27S
AUBURN +       SUNNY     50  28  43 S6        30.29S
FORT WAYNE     PTSUNNY   57  30  35 SW14      30.28F

$$

INZ028-029-035-036-043>045-051>053-171600-
WEST CENTRAL INDIANA

CITY           SKY/WX    TMP DP  RH WIND       PRES   REMARKS
GREENCASTLE +  SUNNY     54  32  43 SW6       30.29R
LAFAYETTE      SUNNY     55  29  36 SW9       30.24R
TERRE HAUTE    SUNNY     55  32  41 SW10      30.28R

$$

INZ030>032-037>040-046>048-054>057-064-065-171600-
CENTRAL INDIANA

CITY           SKY/WX    TMP DP  RH WIND       PRES   REMARKS
ANDERSON       SUNNY     55  28  35 S17       30.30R
CP ATTERBURY + SUNNY     59  32  36 SW10G18   30.31R
COLUMBUS       MOSUNNY   55  34  44 MISG      30.32R
INDIANAPOLIS   PTSUNNY   54  32  43 S12       30.30R
-EAGLE CREEK   SUNNY     54  29  38 SW12G18   30.28R
KOKOMO *+      SUNNY     54  34  47 S16       30.27R
MARION +       SUNNY     54  29  39 SW15      30.28S
MT COMFORT *+  SUNNY     55  34  44 S12       30.29S
SHELBYVILLE    SUNNY     56  34  43 S14       30.31R
ZIONSVILLE +   SUNNY     55  27  33 SW15      30.28R

$$

INZ033-034-041-042-049-050-058-059-171600-
EAST CENTRAL INDIANA

CITY           SKY/WX    TMP DP  RH WIND       PRES   REMARKS
MUNCIE         SUNNY     56  31  38 SW13      30.28S

$$

INZ060-061-067>069-081>083-085>088-171600-
SOUTHWEST INDIANA

CITY           SKY/WX    TMP DP  RH WIND       PRES   REMARKS
EVANSVILLE     SUNNY     57  38  48 SW17      30.34R
HUNTINGBURG *+ SUNNY     57  36  44 SW16      30.34R
WASHINGTON +   SUNNY     57  37  48 S10       30.31R

$$

INZ062-063-066-070>080-084-089>092-171600-
SOUTH CENTRAL AND SOUTHEAST INDIANA

CITY           SKY/WX    TMP DP  RH WIND       PRES   REMARKS
BLOOMINGTON    SUNNY     57  32  38 SW13      30.30R

$$




USA.gov is the U.S. government's official web portal to all federal, state and local government web resources and services.